Regional Weather Roundup
Issued by NWS

Home | Current Version | Previous Version | Graphics & Text | Print | Product List | Glossary On
Versions: 1 2 3 4 5 6 7 8 9 10 11 12 13 14 15 16 17 18 19 20 21 22 23 24 25 26 27 28 29 30 31 32 33 34 35 36 37 38 39 40 41 42 43 44 45 46 47 48 49 50
000
ASUS45 KBOU 020710
RWRCO

WEATHER ROUNDUP FOR COLORADO
NATIONAL WEATHER SERVICE PUEBLO CO
100 AM MDT SUN AUG 02 2015

NOTE: "FAIR" INDICATES FEW OR NO CLOUDS BELOW 12000 FEET WITH NO
SIGNIFICANT WEATHER AND/OR OBSTRUCTIONS TO VISIBILITY.

COZ001>005-013-030-031-020800-
...NORTHWEST COLORADO...

CITY           SKY/WX    TMP DP  RH WIND       PRES   REMARKS
CRAIG          CLEAR     55  43  63 E3        30.18R
HAYDEN         CLEAR     59  39  47 SE8       30.20S
MEEKER         PTCLDY    60  44  55 NE5       30.21R
MOUNT WERNER   NOT AVBL
STEAMBOAT SPGS FAIR      57  42  58 CALM      30.23R
WALDEN         FAIR      50  36  57 SE7       30.31R
$$

COZ006>008-011-020800-
...WEST CENTRAL VALLEYS...

CITY           SKY/WX    TMP DP  RH WIND       PRES   REMARKS
GRAND JUNCTION MOCLDY    73  51  46 SE12      30.09R
MONTROSE       CLOUDY    65  56  72 SE7       30.20F
EAGLE          MOCLDY    63  45  51 E8        30.23S
RIFLE          MOCLDY    70  49  47 S3        30.15S
DELTA          NOT AVBL
NUCLA          PTSUNNY   61  55  82 SE7       30.25S
$$

COZ017>023-064>068-020800-
...SOUTHWEST COLORADO...

CITY           SKY/WX    TMP DP  RH WIND       PRES   REMARKS
DURANGO        MOCLDY    60  56  86 CALM      30.27S
CORTEZ         CLOUDY    64  59  83 NE3       30.21R
PAGOSA SPRINGS FAIR      59  56  89 CALM      30.34F
TELLURIDE      DRIZZLE   54  51  90 CALM      30.44F
WOLF CREEK PAS NOT AVBL
$$

COZ009-010-012-014-032>034-037-058>063-020800-
...CENTRAL COLORADO...

CITY           SKY/WX    TMP DP  RH WIND       PRES   REMARKS
ASPEN          CLOUDY    58  46  64 S6        30.31S
BUENA VISTA    FAIR      58  48  69 CALM      30.36F
COPPER MTN     CLOUDY    55  36  47 S13       30.64S
BERTHOUD PASS  FAIR      45  36  70 SE14      30.68F
COTTONWOOD PAS CLOUDY    57  43  58 N6        30.49S
GUNNISON       CLOUDY    55  52  88 N5        30.39F
KREMMLING      PTCLDY    54  34  47 CALM      30.29R
LEADVILLE      CLOUDY    51  41  68 CALM      30.48S
MONARCH PASS   CLOUDY    45  41  87 SW15      30.73F
SALIDA         MOCLDY    64  47  55 CALM      30.40S
NIWOT RIDGE    NOT AVBL
SUNLIGHT       CLOUDY    57  41  54 CALM      30.57S
WILKERSON PASS CLOUDY    50  39  66 CALM      30.62S
$$

COZ069>075-020800-
...SAN LUIS VALLEY/SANGRE DE CRISTO MOUNTAINS...

CITY           SKY/WX    TMP DP  RH WIND       PRES   REMARKS
ALAMOSA        CLOUDY    57  50  77 E6        30.32F
LA VETA PASS   CLOUDY    50  37  62 MISG      30.51F
SAGUACHE       CLOUDY    57  48  72 N3        30.37S
$$

COZ035-036-038>040-020800-
...NORTHERN COLORADO FRONT RANGE...

CITY           SKY/WX    TMP DP  RH WIND       PRES   REMARKS
DENVER INTL AP CLOUDY    75  46  35 S12       30.09F
DMNS CITY PARK NOT AVBL
AURORA         MOCLDY    74  47  39 S13       30.12S
FRONT RANGE AP FAIR      70  45  40 S10       30.12S
ERIE MUNI ARPT FAIR      68  52  57 SW3       30.07F
BOULDER MUN AP FAIR      70  50  49 CALM      30.08F
CENTENNIAL     CLOUDY    73  46  38 SE8       30.14S
BROOMFIELD     MOCLDY    70  52  52 CALM      30.12F
LOVELAND       PTCLDY    68  54  60 N8        30.10R
LONGMONT       FAIR      72  55  55 N10       30.09S
$$

COZ041-046-047-076>085-087-088-020800-
...PIKES PEAK/PALMER DIVIDE AND SOUTHERN FOOTHILLS...

CITY           SKY/WX    TMP DP  RH WIND       PRES   REMARKS
COLO. SPRINGS  CLOUDY    68  49  50 S6        30.21S
A. F. ACADEMY  CLOUDY    60  50  69 NW5       30.22S
ELLICOTT       FAIR     N/A N/A N/A SW7       30.19F
FALCON         FAIR      64  48  56 SW7       30.26F
FORT CARSON    CLOUDY    66  51  59 S5        30.16F
LIMON          MOCLDY    61  51  70 SW5       30.14F
MONUMENT HILL  NOT AVBL
TRINIDAD       CLOUDY    64  56  75 W10       30.19F
$$

COZ042>045-048>051-090-091-020800-
...NORTHEAST COLORADO...

CITY           SKY/WX    TMP DP  RH WIND       PRES   REMARKS
GREELEY ARPT   PTCLDY    68  54  60 SE8       30.07F
AKRON          CLOUDY    70  54  56 S9        30.07F
BURLINGTON     MOCLDY    69  63  81 S9        30.05F
WRAY           FAIR      73  60  63 S6        30.01F
STERLING       FAIR      66  55  68 CALM      30.03F
HOLYOKE        NOT AVBL
FORT MORGAN    FAIR      72  54  54 SW8       30.06F
$$

COZ086-089-092>099-020800-
...SOUTHEAST COLORADO...

CITY           SKY/WX    TMP DP  RH WIND       PRES   REMARKS
PUEBLO         CLOUDY    70  61  73 NW6       30.10F
LA JUNTA       CLOUDY    72  56  57 W10       30.05F
LAMAR          CLOUDY    71  59  65 CALM      29.99S
SPRINGFIELD      N/A     63  58  83 NW7       30.07F
$$




USA.gov is the U.S. government's official web portal to all federal, state and local government web resources and services.